Lamezia Terme, Italy

12:29 AM CET on January 20, 2018 (GMT +0100)
Terme

Weather History for LICA - January, 2013

Change the Weather History Date:

Wednesday, January 23, 2013

  Actual Average Record
Temperature  
Mean Temperature 54 °F -  
Max Temperature 60 °F 55 °F 66 °F (2007)
Min Temperature 48 °F 41 °F 33 °F (1998)
Degree Days  
Heating Degree Days 11    
Growing Degree Days 4 (Base 50)    
Moisture  
Dew Point 45 °F    
Average Humidity 73    
Maximum Humidity 93    
Minimum Humidity 51    
Precipitation  
Precipitation 0.00 in - - ()
Sea Level Pressure  
Sea Level Pressure 29.84 in    
Wind  
Wind Speed 12 mph ()    
Max Wind Speed 21 mph    
Max Gust Speed 24 mph    
Visibility 6.2 miles    
Events Rain    
Averages and records for this station are not official NWS values.
T = Trace of Precipitation, MM = Missing Value Source: Averaged Metar Reports

Daily Weather History Graph

Daily Weather History Graph

Search for Another Location

Airport or City:

Trip Planner

Search our weather history database for the weather conditions in past years. The results will help you decide how hot, cold, wet, or windy it might be!

Date:

Astronomy

Jan. 23, 2013 Rise Set
Actual Time 7:08 AM CET 5:06 PM CET
Civil Twilight 6:39 AM CET 5:34 PM CET
Nautical Twilight 6:07 AM CET 6:07 PM CET
Astronomical Twilight 5:35 AM CET 6:38 PM CET
Moon 2:02 PM CET (1/23) 4:04 AM CET (1/23)
Length of Visible Light 10h 55m
Length of Day
9h 57m
Waxing Gibbous, 87% of the Moon is Illuminated
Jan 23
Waxing Gibbous
Jan 27
Full
Feb 3
Last Quarter
Feb 10
New
Feb 17
First Quarter

Hourly Weather History & Observations

Time (CET) Temp. Dew Point Humidity Pressure Visibility Wind Dir Wind Speed Gust Speed Precip Events Conditions
12:50 AM 53.6 °F 42.8 °F 67% 29.86 in 6.2 mi West 18.4 mph - N/A   Scattered Clouds
1:50 AM 53.6 °F 41.0 °F 62% 29.86 in 6.2 mi West 18.4 mph - N/A   Scattered Clouds
2:50 AM 53.6 °F 41.0 °F 62% 29.89 in 6.2 mi West 17.3 mph - N/A   Scattered Clouds
3:50 AM 53.6 °F 41.0 °F 62% 29.89 in 6.2 mi West 13.8 mph - N/A   Scattered Clouds
4:50 AM 53.6 °F 42.8 °F 67% 29.89 in 6.2 mi West 16.1 mph - N/A   Scattered Clouds
5:50 AM 51.8 °F 44.6 °F 76% 29.89 in 6.2 mi WNW 11.5 mph - N/A   Scattered Clouds
6:50 AM 50.0 °F 46.4 °F 87% 29.92 in 6.2 mi West 12.7 mph 24.2 mph N/A Rain Rain
7:09 AM 50.0 °F 44.6 °F 82% 29.92 in 6.2 mi WNW 9.2 mph - N/A   Scattered Clouds
7:50 AM 50.0 °F 46.4 °F 87% 29.92 in 6.2 mi ESE 5.8 mph - N/A   Mostly Cloudy
8:50 AM 48.2 °F 46.4 °F 93% 29.95 in 6.2 mi ENE 6.9 mph - N/A   Scattered Clouds
9:50 AM 51.8 °F 46.4 °F 82% 29.95 in 6.2 mi ENE 8.1 mph - N/A   Scattered Clouds
10:50 AM 55.4 °F 44.6 °F 67% 29.95 in 6.2 mi ENE 5.8 mph - N/A   Partly Cloudy
11:50 AM 57.2 °F 42.8 °F 59% 29.92 in 6.2 mi Variable 4.6 mph - N/A   Partly Cloudy
12:50 PM 60.8 °F 44.6 °F 55% 29.86 in 6.2 mi East 8.1 mph - N/A   Partly Cloudy
1:50 PM 59.0 °F 42.8 °F 55% 29.83 in 6.2 mi East 15.0 mph - N/A   Partly Cloudy
2:50 PM 59.0 °F 41.0 °F 51% 29.80 in 6.2 mi East 18.4 mph - N/A   Partly Cloudy
3:50 PM 57.2 °F 44.6 °F 63% 29.80 in 6.2 mi East 16.1 mph - N/A   Partly Cloudy
4:50 PM 55.4 °F 46.4 °F 72% 29.80 in 6.2 mi East 13.8 mph - N/A   Partly Cloudy
5:50 PM 55.4 °F 46.4 °F 72% 29.77 in 6.2 mi ENE 12.7 mph - N/A   Mostly Cloudy
6:50 PM 55.4 °F 46.4 °F 72% 29.77 in 6.2 mi ENE 19.6 mph - N/A   Mostly Cloudy
7:50 PM 53.6 °F 46.4 °F 77% 29.74 in 6.2 mi East 20.7 mph - N/A   Mostly Cloudy
8:50 PM 53.6 °F 48.2 °F 82% 29.71 in 6.2 mi East 11.5 mph - N/A   Scattered Clouds
9:50 PM 50.0 °F 46.4 °F 87% 29.71 in 6.2 mi ENE 4.6 mph - N/A   Partly Cloudy
10:50 PM 50.0 °F 46.4 °F 87% 29.71 in 6.2 mi Variable 3.5 mph - N/A   Partly Cloudy
11:50 PM 48.2 °F 46.4 °F 93% 29.68 in 6.2 mi ENE 9.2 mph - N/A   Partly Cloudy